Location: Borotín
(49.5055°N, 14.6142°E)
Time: 11:02:12
(UTC+00:00)

Cosmos 1544 Rocket - Pass Details

Date: 27 May 2022
Orbit: 603 x 631 km, 82.5° (Epoch: 26 June)

Event Time Altitude Azimuth Distance (km) Brightness Sun altitude
Rises 01:20:22 0° 343° (NNW) 2,918 7.6 -12.5°
Reaches altitude 10° 01:22:45 10° 334° (NNW) 2,002 6.6 -12.3°
Maximum altitude 01:26:46 35° 269° (W) 1,008 4.4 -12.0°
Enters shadow 01:29:34 17° 212° (SSW) 1,562 5.0 -11.7°
